Powrót do katalogu

CZ-6A DEB

AktywnySSO
NORAD 54331·DEBRIS·🇨🇳 China

Wystrzelony Nov 11, 2022 z Taiyuan Satellite Launch Center

Loading…

Następne Przeloty (najbliższe 24 godziny)

TLE

ŚwieżeSource: Space-Track

Epoka: Sep 14, 2026, 09:07 UTC

1 54331U 22151CA  26257.38023498  .00000448  00000-0  33649-3 0  9990
2 54331  98.9163 224.6456 0120190 191.0705 168.7809 13.96149629194877

Śledź CZ-6A DEB w czasie rzeczywistym z AllMySat

Download on the App Store